Edithburgh AWS, Australia

5:41 AM ACDT on December 08, 2016 (GMT +1030)
Edithburgh AWS

Weather History for 94809 - October, 2013

Change the Weather History Date:

Sunday, October 13, 2013

  Actual Average Record
Temperature  
Mean Temperature 55 °F -  
Max Temperature 61 °F - - ()
Min Temperature 49 °F - - ()
Degree Days  
Heating Degree Days 10    
Growing Degree Days 5 (Base 50)    
Moisture  
Dew Point 42 °F    
Average Humidity 55    
Maximum Humidity 87    
Minimum Humidity 31    
Precipitation  
Precipitation 0.00 in - - ()
Sea Level Pressure  
Sea Level Pressure 29.96 in    
Wind  
Wind Speed 13 mph ()    
Max Wind Speed 26 mph    
Max Gust Speed -    
T = Trace of Precipitation, MM = Missing Value Source: Averaged Metar Reports

Daily Weather History Graph

Daily Weather History Graph

Search for Another Location

Airport or City:

Trip Planner

Search our weather history database for the weather conditions in past years. The results will help you decide how hot, cold, wet, or windy it might be!

Date:

Astronomy

Oct. 13, 2013 Rise Set
Actual Time 6:39 AM ACDT 7:31 PM ACDT
Civil Twilight 6:13 AM ACDT 7:57 PM ACDT
Nautical Twilight 5:43 AM ACDT 8:28 PM ACDT
Astronomical Twilight 5:11 AM ACDT 8:59 PM ACDT
Moon 1:38 PM ACDT (10/13) 2:36 AM ACDT (10/13)
Length of Visible Light 13h 43m
Length of Day
12h 52m
Waxing Gibbous, 63% of the Moon is Illuminated
Oct 13
Waxing Gibbous
Oct 19
Full
Oct 27
Last Quarter
Nov 3
New
Nov 10
First Quarter

Hourly Weather History & Observations

Time (ACDT) Temp. Dew Point Humidity Pressure Visibility Wind Dir Wind Speed Gust Speed Precip Events Conditions
12:00 AM 58 °F 47 °F 57% 29.78 in - SW 13.8 mph - -  
12:30 AM 58 °F 48 °F 60% 29.78 in - WSW 10.4 mph - -  
2:30 AM 56 °F 41 °F 45% 29.78 in - WSW 10.4 mph - -  
3:00 AM 54 °F 49 °F 77% 29.77 in - West 10.4 mph - -  
3:30 AM 53 °F 45 °F 67% 29.77 in - WSW 10.4 mph - -  
5:30 AM 50 °F 47 °F 86% 29.79 in - West 12.7 mph - -  
6:00 AM 49 °F 46 °F 87% 29.79 in - West 8.1 mph - -   Unknown Precipitation
6:30 AM 50 °F 47 °F 87% 29.80 in - West 9.2 mph - -  
8:30 AM 55 °F 46 °F 64% 29.86 in - SW 17.3 mph - -  
9:00 AM 56 °F 46 °F 61% 29.88 in - SW 18.4 mph - -  
9:30 AM 57 °F 46 °F 56% 29.89 in - SW 18.4 mph - -  
11:30 AM 58 °F 44 °F 49% 29.97 in - SSW 26.5 mph - -  
12:30 PM 61 °F 40 °F 35% 29.98 in - SSW 23.0 mph - -  
2:30 PM 58 °F 42 °F 44% 30.04 in - SSW 19.6 mph - -  
5:30 PM 58 °F 36 °F 33% 30.10 in - SSW 18.4 mph - -  
6:00 PM 57 °F 35 °F 31% 30.11 in - SW 17.3 mph - -  
6:30 PM 56 °F 36 °F 35% 30.12 in - SSW 19.6 mph - -  
8:30 PM 53 °F 38 °F 46% 30.19 in - SW 16.1 mph - -  
9:00 PM 53 °F 38 °F 44% 30.21 in - SW 15.0 mph - -  
9:30 PM 53 °F 42 °F 55% 30.22 in - SSW 16.1 mph - -  
11:30 PM 52 °F 33 °F 36% 30.23 in - SW 11.5 mph - -